Вернуться в каталог

ONEWEB-0193

АктивенСвязьPO
NORAD 48238·PAYLOAD·🇬🇧 United Kingdom

Запущен Apr 25, 2021 с Vostochny Cosmodrome

Loading…

Ближайшие Пролёты (ближайшие 24 часа)

TLE

СвежийSource: CelesTrak SupGP

Эпоха: Sep 14, 2026, 21:31 UTC

1 48238C 21031AE  26257.89706435  .00003478  00000+0  93939-2 0  2579
2 48238  87.8901 271.8108 0002301  87.8950 312.1821 13.14496451    17

Отслеживайте ONEWEB-0193 в реальном времени с AllMySat

Download on the App Store